GLONASS-K 1

Last updated on Nov. 19, 2019, 4:25 a.m. UTC

1 37372U 11009A   19322.54507712 -.00000052  00000-0  00000+0 0  9998
2 37372  65.7963  34.8625 0010094 226.1445 272.9086  2.13107575 67891
UTC
Height (km)
Latitude
Longitude
Inclination
Orbital Period
UTC large
Height (km)
Speed (km/s)
/
Latitude / Longitude
Inclination (degrees)
Orbital Period (minutes)
Azimuth
Elevation
Range (km)
Doppler Factor
iOS Compass Heading
iOS Angle

Next 30 passes for location: Hong Kong

Rise time Rise Azimuth (degrees) Set time Set Azimuth (degrees) Duration Max altitude (degrees)

No matching passes for this satellites